Regional Weather Roundup
Issued by NWS

Home | Current Version | Previous Version | Text Only | Print | Product List | Glossary Off
Versions: 1 2 3 4 5 6 7 8 9 10 11 12 13 14 15 16 17 18 19 20 21 22 23 24 25 26 27 28 29 30 31 32 33 34 35 36 37 38 39 40 41 42 43 44 45 46 47 48 49 50

323
ASUS43 KMPX 231410
RWRMN
WEATHER ROUNDUP FOR MINNESOTA
NATIONAL WEATHER SERVICE TWIN CITIES/CHANHASSEN MN
900 AM CDT SUN APR 23 2017


NOTE: "FAIR" INDICATES FEW OR NO CLOUDS BELOW 12,000 FEET WITH NO
SIGNIFICANT WEATHER AND/OR OBSTRUCTIONS TO VISIBILITY. N/A MEANS
CURRENT SKY AND/OR WEATHER CONDITIONS ARE NOT AVAILABLE.

MNZ060>063-068>070-231500-
   Twin Cities Metro

CITY           SKY/WX    TMP DP  RH WIND       PRES   REMARKS
TWIN CITIES    MOSUNNY   52  40  63 NE8G16    30.10F
ST PAUL        SUNNY     52  42  69 NE6       30.11F
CRYSTAL        MOSUNNY   50  38  63 NE10      30.10S
BLAINE         MOSUNNY   52  39  62 NE12      30.11S
LAKEVILLE      SUNNY     54  39  58 NW3       30.09S
EDEN PRAIRIE   SUNNY     53  40  61 N6        30.09S
SOUTH ST PAUL  SUNNY     52  40  62 NE7       30.10S
LAKE ELMO      FAIR      52  43  71 E7        30.11S
$$
MNZ001>005-007-008-013>017-022>024-027-028-231500-
   Northwest Minnesota

CITY           SKY/WX    TMP DP  RH WIND       PRES   REMARKS
BEMIDJI        CLOUDY    32  25  74 E14       30.18F WCI  22
HALLOCK        CLOUDY    34  18  51 E13       30.24F WCI  25
ROSEAU         MOSUNNY   32  18  55 E15       30.25S WCI  22
WARROAD        MOSUNNY   30  16  55 E13       30.27S WCI  20
THIEF RVR FALL CLOUDY    31  23  72 E16       30.21F WCI  20
CROOKSTON      CLOUDY    34  27  75 E16       30.20F WCI  23
FOSSTON        CLOUDY    30  23  74 NE9G18    30.18F WCI  22
DETROIT LAKES  CLOUDY    34  32  93 E10G20    30.14S WCI  26
MOORHEAD       CLOUDY    36  30  80 MISG      30.16S
PARK RAPIDS    LGT SNOW  32  27  81 E13       30.15R VSB 1   WCI  22
MAHNOMEN       LGT SNOW  31  28  90 E14       30.15F WCI  21
$$
MNZ006-009>011-018-025>026-231500-
   North Central Minnesota

CITY           SKY/WX    TMP DP  RH WIND       PRES   REMARKS
BAUDETTE       CLOUDY    29  11  47 E14       30.25F WCI  18
FLAG ISLAND    MOSUNNY   28   9  43 E8        30.27S WCI  20
INTL FALLS     MOSUNNY   29  11  47 NE9       30.25R WCI  20
WASKISH        CLOUDY    30  23  74 NE12      30.24S WCI  21
BIG FORK       CLOUDY    30  23  74 E7        30.22S WCI  23
LONGVILLE      SNOW      30  30 100 NE5       30.18F VSB 1/2 WCI  25
GRAND RAPIDS   CLOUDY    31  26  82 NE8       30.23R WCI  23
CRANE LAKE     CLOUDY    28  21  74 N5        30.26S WCI  23
ORR            CLOUDY    28  19  69 MISG      30.21R
COOK           CLOUDY    30  21  69 NE5       30.23R WCI  25
WALKER         LGT SNOW  30  28  93 NE8       30.19S WCI  23
$$
MNZ012-019>021-037-231500-
   Northeast Minnesota

CITY           SKY/WX    TMP DP  RH WIND       PRES   REMARKS
DULUTH         LGT SNOW  33  31  92 NE6       30.17F FOG     WCI  28
ELY            CLOUDY    28  19  69 NE6       30.21S WCI  22
HIBBING        CLOUDY    30  24  78 NE9       30.20S WCI  22
EVELETH        CLOUDY    32  23  69 NE9       30.22R WCI  24
DULUTH HARBOR  LGT RAIN  36  34  93 NE15      30.23S
TWO HARBORS      N/A    N/A N/A N/A E6        30.19S
SILVER BAY     CLOUDY    34  30  86 N3        30.19S
GRAND MARAIS     N/A     35  18  49 NE7       30.24R WCI  29
G MARAIS ARPRT CLOUDY    27  16  63 NW9       30.19R WCI  17
$$
MNZ029>031-032-039>041-046>048-054>057-064-231500-
   West Central Minnesota

CITY           SKY/WX    TMP DP  RH WIND       PRES   REMARKS
FERGUS FALLS   CLOUDY    39  34  81 E13G24    30.10S
WHEATON        CLOUDY    45  37  76 NE9       30.10F
MORRIS         MOSUNNY   46  39  76 E22       30.06F
ALEXANDRIA     CLOUDY    42  37  82 E20G26    30.10S
ELBOW LAKE     PTSUNNY   41  36  80 NE15G26   30.09S
WADENA         CLOUDY    36  32  87 E12G17    30.13F
GLENWOOD       MOSUNNY   45  39  81 E18       30.10R
APPLETON       MOSUNNY   46  41  81 SE13      30.07F
BENSON         MOSUNNY   50  37  62 SE13      30.09S
ORTONVILLE     SUNNY     46  39  76 SE10      30.06F
MADISON        MOSUNNY   45  43  93 CALM      30.07F
WILLMAR        FAIR      48  43  81 E13       30.09F
$$
MNZ033>034-036-042>043-049>051-058-059-231500-
   Central Minnesota

CITY           SKY/WX    TMP DP  RH WIND       PRES   REMARKS
ST CLOUD       CLOUDY    46  38  73 E9G22     30.12F
SAUK CENTRE    CLOUDY    42  37  80 NE12G18   30.11S
PAYNESVILLE    CLOUDY    46  37  69 E14       30.10F
AITKIN         MIX PCPN  36  28  75 NE10G18   30.18R
PINE RIVER     LGT SNOW  30  30 100 NE8       30.20F WCI  23
BRAINERD       CLOUDY    36  32  85 E13       30.17R
STAPLES        CLOUDY    36  32  87 E10G17    30.14F
LONG PRAIRIE   CLOUDY    39  36  87 NE10G18   30.13R
LITTLE FALLS   CLOUDY    39  34  81 NE8       30.15R
LITCHFIELD     SUNNY     50  43  76 E10       30.10F
BUFFALO        SUNNY     48  38  68 NE14      30.12F
MAPLE LAKE     SUNNY     49  41  74 NE13      30.12S
HUTCHINSON     CLOUDY    51  43  76 NE10      30.11S
$$
MNZ037-044-045-052-053-231500-
   East Central Minnesota

CITY           SKY/WX    TMP DP  RH WIND       PRES   REMARKS
PRINCETON      CLOUDY    46  39  76 NE8G17    30.13S
MORA           CLOUDY    37  34  87 NE8       30.17S
CAMBRIDGE      CLOUDY    46  36  66 NE10G17   30.12S
RUSH CITY      CLOUDY    43  38  83 N8        30.15R
MOOSE LAKE     LGT RAIN  34  32  93 NE5       30.16F WCI  30
HINCKLEY       CLOUDY    39  36  87 NE9       30.16S
CLOQUET        LGT SNOW  32  30  93 N3        30.19R
MCGREGOR       CLOUDY    32  30  93 NE12G17   30.20R WCI  23
$$
MNZ071>073-080-081-089-090-097-098-231500-
   Southwest Minnesota

CITY           SKY/WX    TMP DP  RH WIND       PRES   REMARKS
MONTEVIDEO     MOSUNNY   50  43  76 SE8       30.08F
GRANITE FALLS  SUNNY     46  42  84 CALM      30.11S
CANBY          PTSUNNY   41  39  91 CALM      30.09F
MARSHALL       SUNNY     44  38  79 SE3       30.09F
REDWOOD FALLS  SUNNY     49  40  71 CALM      30.08F
OLIVIA         SUNNY     50  41  71 E6        30.08S
PIPESTONE      SUNNY     54  34  47 SW13      30.06F
WINDOM         SUNNY     55  36  47 W6        30.09F
WORTHINGTON    SUNNY     56  33  42 SW16      30.09S
JACKSON        SUNNY     54  32  43 SW9       30.10S
TRACY          SUNNY     45  40  82 CALM      30.09F
SLAYTON        SUNNY     55  33  42 SW17      30.07F
$$
MNZ065>067-074>077-082>085-091>093-231500-
   South Central Minnesota

CITY           SKY/WX    TMP DP  RH WIND       PRES   REMARKS
MANKATO        SUNNY     54  37  52 W6        30.11S
NEW ULM        SUNNY     52  39  62 CALM      30.09F
ST JAMES       SUNNY     54  37  54 NW5       30.11F
FAIRMONT       SUNNY     57  36  45 W13       30.10F
GLENCOE        SUNNY     51  45  79 NE6       30.09S
FARIBAULT      SUNNY     55  39  54 SW5       30.10F
OWATONNA       SUNNY     54  37  54 W7        30.11S
WASECA         SUNNY     52  37  58 NW7       30.12S
ALBERT LEA     SUNNY     57  34  41 W7        30.11S
$$
MNZ078>079-086>088-094>096-231500-
   Southeast Minnesota

CITY           SKY/WX    TMP DP  RH WIND       PRES   REMARKS
ROCHESTER      SUNNY     57  39  51 W10       30.11S
RED WING       SUNNY     57  37  47 W5        30.09S
STANTON        SUNNY     56  40  55 W5        30.09S
DODGE CENTER   SUNNY     55  39  54 SW8       30.10S
WINONA         SUNNY     55  37  50 NW5       30.12R
AUSTIN         SUNNY     55  37  50 W8        30.11S
PRESTON        SUNNY     56  38  50 W9        30.13R
$$
ABBREVIATIONS USED IN REMARKS
   TC - TEMPERATURES IN CELSIUS
  WCI - WIND CHILL INDEX
   HX - HEAT INDEX
  VSB - VISIBILITY
$$




USA.gov is the U.S. government's official web portal to all federal, state and local government web resources and services.